This demonstration page uses our WeatherBlox Daily Observations layout. Learn more.

Left ArrowRight Arrow

Hourly Observations for June 21, 2016

Temp ( °F °C ) Dew Point ( °F °C ) Humidity (%) Winds ( mph kmh ) Pressure ( in mb ) Visibility ( mi km ) Precip ( " mm )
12:51 am 00:51 Clear 85 29.4 37 2.8 18 18 SSE 7 11 29.86 1011 10 16 0.00 0.00
1:51 am 01:51 Clear 80 26.7 37 2.8 21 21 E 9 15 29.87 1011 10 16 0.00 0.00
2:51 am 02:51 Clear 86 30 42 5.6 21 21 E 15 24 29.85 1011 10 16 0.00 0.00
3:51 am 03:51 Clear 85 29.4 44 6.7 24 24 E 12 19 29.85 1011 10 16 0.00 0.00
4:51 am 04:51 Clear 82 27.8 45 7.2 27 27 SE 9 15 29.89 1012 10 16 0.00 0.00
5:51 am 05:51 Sunny 81 27.2 46 7.8 29 29 ESE 7 11 29.90 1013 10 16 0.00 0.00
6:51 am 06:51 Sunny 86 30 46 7.8 25 25 E 12 19 29.91 1013 10 16 0.00 0.00
7:51 am 07:51 Sunny 89 31.7 47 8.3 23 23 ESE 12 19 29.92 1013 10 16 0.00 0.00
8:51 am 08:51 Sunny 92 33.3 48 8.9 22 22 SE 12 19 29.92 1013 10 16 0.00 0.00
9:51 am 09:51 Sunny 94 34.4 48 8.9 21 21 SSE 8 13 29.91 1013 10 16 0.00 0.00
10:51 am 10:51 Sunny 96 35.6 47 8.3 19 19 Calm 29.89 1012 10 16 0.00 0.00
11:51 am 11:51 Sunny 98 36.7 46 7.8 17 17 S 9 15 29.87 1012 10 16 0.00 0.00
12:51 pm 12:51 Sunny 101 38.3 42 5.6 13 13 undefined N/A 29.83 1010 10 16 0.00 0.00
1:51 pm 13:51 Sunny 104 40 39 3.9 11 11 Calm 29.80 1009 10 16 0.00 0.00
2:51 pm 14:51 Sunny 106 41.1 37 2.8 9 9 ENE 8 13 29.75 1008 10 16 0.00 0.00
3:51 pm 15:51 Sunny 105 40.6 35 1.7 9 9 SW 10 17 29.72 1006 10 16 0.00 0.00
4:51 pm 16:51 Sunny 105 40.6 34 1.1 8 8 S 6 9 29.69 1006 10 16 0.00 0.00
5:51 pm 17:51 Sunny 103 39.4 34 1.1 9 9 VRB 3 6 29.68 1005 10 16 0.00 0.00
6:51 pm 18:51 Sunny 102 38.9 34 1.1 9 9 W 5 7 29.68 1005 10 16 0.00 0.00
7:51 pm 19:51 Clear 99 37.2 41 5 14 14 WNW 15 24 29.70 1006 10 16 0.00 0.00
8:51 pm 20:51 Clear 95 35 42 5.6 16 16 NW 15 24 29.72 1006 10 16 0.00 0.00
9:51 pm 21:51 Clear 92 33.3 41 5 17 17 NW 10 17 29.74 1007 10 16 0.00 0.00
10:51 pm 22:51 Clear 90 32.2 41 5 18 18 WNW 10 17 29.75 1007 10 16 0.00 0.00
11:51 pm 23:51 Clear 88 31.1 42 5.6 20 20 WNW 9 15 29.75 1007 10 16 0.00 0.00

Powered by AerisWeather